Location: Unspecified
(45.6669°N, 0.0000°E)
Time: 21:43:31
(UTC+00:00)

ISS - Pass Details

Date: 26 May 2019
Orbit: 408 x 419 km, 51.6° (Epoch: 21 June)

Event Time Altitude Azimuth Distance (km) Brightness Sun altitude
Rises 22:06:23 0° 297° (WNW) 2,360 0.9 -18.6°
Reaches altitude 10° 22:08:34 10° 305° (NW) 1,497 0.0 -18.7°
Maximum altitude 22:11:45 39° 16° (NNE) 639 -2.5 -19.0°
Enters shadow 22:13:22 23° 72° (ENE) 935 -2.1 -19.1°
